Location: Caz�res
(43.2071°N, 1.0863°E)
Time: 04:03:25
(UTC+00:00)

Daily predictions for brighter satellites

Satellite Brightness Start Highest point End
(mag) Time Altitude Azimuth Time Altitude Azimuth Time Altitude Azimuth
ATLAS 2AS CENTAUR R/B 4.1 02:22:31 35° N 02:22:31 35° N 02:26:58 10° NNE
Cosmos 1697 Rocket 4.2 02:50:39 31° E 02:50:39 31° E 02:54:09 10° SE
COSMOS 2406 4.2 03:01:40 44° E 03:01:40 44° E 03:06:21 10° NE
Cosmos 2074 Rocket 4.5 02:57:23 10° N 03:03:34 56° ENE 03:04:29 51° ESE
Lacrosse 5 4.2 03:07:24 17° N 03:07:24 17° N 03:10:03 10° NE
Cosmos 2082 Rocket 3.1 03:27:07 36° SSE 03:28:46 46° ESE 03:34:13 10° NE
ATLAS CENTAUR R/B 3.3 03:36:07 23° ESE 03:36:33 23° ESE 03:39:49 10° ENE
PAYLOAD A 4.1 03:33:13 10° NNE 03:37:54 74° ENE 03:37:54 74° ENE
Cosmos 1570 Rocket 4.2 03:42:27 63° N 03:42:27 63° N 03:46:59 10° NNE
SL-4 R/B 3.6 03:45:18 30° NNE 03:45:18 30° NNE 03:48:09 10° NE
GP-B 3.7 03:44:05 29° SSE 03:46:09 54° E 03:50:29 10° N
IRIDIUM 103 4.3 03:46:07 54° SSE 03:47:18 80° E 03:52:33 10° N
ARIANE 5 R/B 3.3 03:42:25 10° N 03:45:41 39° N 03:45:41 39° N
USA 234 3.1 03:41:59 10° NE 03:48:32 86° NW 03:50:07 56° WSW
ATLAS 5 CENTAUR R/B 2.5 03:54:03 57° SW 03:54:03 57° SW 04:00:14 10° SSE
Meteor 1-12 Rocket 4.3 03:50:00 10° NNW 03:59:18 22° S 04:01:11 10° S
Cosmos 1833 Rocket 2.9 03:57:03 51° NW 03:57:03 51° NW 04:02:07 10° NNE
H-2A ROCKET BODY 4.2 03:57:11 29° SW 03:58:13 29° SSW 04:03:06 10° SSE
Cosmos 2369 3.6 03:53:08 12° NNW 03:58:26 87° ENE 04:04:10 10° SSE
Nadezhda 1 Rocket 3.8 03:57:23 29° SSW 04:00:40 80° W 04:06:46 10° N
Lacrosse 5 rocket 3.2 04:01:19 20° SSE 04:03:07 28° SE 04:06:49 10° ENE
CZ-4B R/B 3.5 03:58:42 10° N 04:03:57 68° WNW 04:04:42 59° WSW
CZ-2C R/B 3.0 04:00:26 10° NNE 04:03:37 61° NE 04:03:37 61° NE
DELTA 2 R/B (1) 3.9 04:03:59 47° SSW 04:04:19 48° SSW 04:09:36 10° ESE
IRIDIUM 106 4.2 04:04:19 50° SSW 04:05:36 71° W 04:10:50 10° N
Meteor 1-13 Rocket 4.4 04:06:54 47° WNW 04:06:54 47° WNW 04:11:56 10° N
BREEZE-M DEB (TANK) 3.3 04:07:19 31° E 04:07:19 31° E 04:09:05 10° ENE
ALOS 2.1 04:03:03 10° N 04:07:44 77° WNW 04:08:33 59° SW
Cosmos 1610 Rocket 4.3 04:01:44 10° N 04:07:56 75° W 04:14:11 10° S
METEOR-M 4.2 04:04:55 10° NNE 04:10:18 75° ESE 04:15:37 10° S
CZ-2C R/B 2.5 04:05:43 10° N 04:10:22 54° WNW 04:10:22 54° WNW
Cosmos 1726 3.2 04:08:02 10° N 04:11:34 44° ENE 04:15:06 10° SSE
Cosmos 1484 Rocket 3.0 04:07:55 10° NNE 04:11:39 64° E 04:13:32 28° S
Cosmos 2360 4.2 04:10:07 41° WNW 04:11:45 56° WSW 04:17:18 10° S
ATLAS 2AS CENTAUR R/B 4.4 04:09:58 18° NW 04:12:20 20° NNW 04:17:40 10° NNE
Cosmos 1980 Rocket 2.1 04:08:24 10° NNW 04:14:09 89° ENE 04:19:50 10° SSE
Cosmos 2184 Rocket 4.2 04:09:42 10° NNW 04:15:28 43° W 04:21:14 10° SSW
Cosmos 2341 Rocket 4.3 04:09:44 10° N 04:16:04 68° E 04:22:17 10° SSE
Meteor 1-22 Rocket 4.4 04:11:17 10° N 04:17:21 79° E 04:23:09 10° SSE
Meteor 1-23 Rocket 4.2 04:15:58 21° SSW 04:19:54 66° WNW 04:25:36 10° N
Cosmos 2298 Rocket 3.9 04:17:10 10° NNW 04:22:28 76° WSW 04:27:44 10° SSE
FALCON 9 DEB 3.5 04:22:35 48° NNE 04:22:37 48° NNE 04:25:33 10° ESE
FALCON 9 DEB 3.0 04:25:45 68° E 04:25:45 68° E 04:28:28 10° ESE
Cosmos 2151 Rocket 3.9 04:21:59 10° N 04:26:22 65° E 04:30:44 10° SSE
NOSS 3-1 (A) 4.5 04:19:09 10° NNW 04:26:39 66° NE 04:35:23 10° SE
FENGYUN 3A 3.9 04:24:17 10° N 04:29:29 48° WNW 04:32:06 27° SW
COSMOS 2455 3.6 04:23:42 10° S 04:29:29 53° ESE 04:35:21 10° NE
FALCON 9 DEB 3.3 04:30:52 48° N 04:31:18 54° NNE 04:34:17 10° ESE
FALCON 9 DEB 3.3 04:31:28 44° NNW 04:32:18 64° NNE 04:35:39 10° ESE
Cosmos 1697 Rocket 3.2 04:32:35 33° W 04:32:50 33° WSW 04:37:47 10° SSW
Sich 1 Rocket 3.5 04:28:57 10° NNW 04:33:18 61° W 04:37:38 10° S
Cosmos 1674 Rocket 4.0 04:29:29 10° S 04:33:47 61° E 04:38:04 10° NNE
GEOS 3 Rocket 3.6 04:29:27 10° NE 04:34:38 80° SE 04:39:12 13° SSW
BREEZE M DEB (TANK) 3.3 04:30:28 20° WNW 04:35:37 90° NNW 04:38:45 10° ESE
Cosmos 1300 Rocket 3.7 04:33:25 10° NNW 04:37:36 48° W 04:41:47 10° SSW
Cosmos 2154 Rocket 4.3 04:33:18 10° NNW 04:39:01 40° W 04:44:43 10° SSW
Cosmos 2278 3.6 04:36:43 10° NNW 04:42:27 74° WSW 04:48:07 10° SSE
Cosmos 1125 Rocket 3.5 04:39:18 10° NNW 04:44:25 58° WSW 04:49:29 10° S
COSMOS 2406 4.1 04:43:47 25° W 04:45:21 29° NW 04:50:21 10° N
Lacrosse 5 3.7 04:47:05 10° NNW 04:51:18 25° NNE 04:55:29 10° ENE
Cosmos 1674 4.4 04:48:21 10° SSE 04:51:44 35° E 04:55:08 10° NNE
Cosmos 1461 3.5 04:51:22 27° W 04:53:05 38° NW 04:57:04 10° NNE
Meteor 2-10 4.2 04:48:53 10° NNW 04:53:38 43° W 04:58:26 10° SSW
Cosmos 1340 2.7 04:50:24 10° SSW 04:54:04 53° WNW 04:57:47 10° N
PSLV R/B 3.9 04:51:37 10° N 04:55:45 42° WNW 04:59:52 10° SW
NOSS 3-1 (C) 4.2 04:48:48 10° NW 04:56:22 62° WSW 05:05:04 10° SSE
Cosmos 921 Rocket 4.5 04:56:40 19° WNW 04:56:40 19° WNW 04:59:40 10° NNW
Cosmos 2366 rocket 4.0 04:51:27 10° N 04:57:49 88° W 05:04:10 10° S
Cosmos 1959 Rocket 4.4 04:53:42 10° N 04:59:50 87° W 05:05:57 10° S
SL-16 R/B 2.8 04:54:24 10° NNW 05:00:02 59° ENE 05:05:37 10° SE
Cosmos 864 Rocket 4.4 04:56:15 10° N 05:02:27 84° W 05:08:40 10° S
In-Cosmos 22 4.2 04:58:44 10° S 05:04:01 78° E 05:09:19 10° NNE
Cosmos 371 Rocket 4.2 05:01:10 10° N 05:05:57 51° ENE 05:10:42 10° SE
Cosmos 1842 4.2 05:03:50 14° SW 05:06:29 27° WNW 05:09:53 10° NNW
Cosmos 2181 Rocket 3.9 05:00:48 10° SSW 05:06:53 68° W 05:13:05 10° N
KORONAS-FOTON 4.4 05:03:34 10° S 05:07:15 58° E 05:10:58 10° NNE
Meteor 1-21 4.2 05:01:54 10° SSW 05:07:34 70° W 05:13:14 10° N
Meteor 1-31 Rocket 2.8 05:06:43 10° NNE 05:10:33 80° ESE 05:14:19 10° S
Cosmos 1626 3.7 05:08:35 10° SSE 05:12:02 39° E 05:15:30 10° NNE
Cosmos 2082 Rocket 3.1 05:09:02 14° WSW 05:13:03 30° NW 05:18:02 10° N
ATLAS CENTAUR R/B 2.0 05:12:18 15° WSW 05:15:11 36° NW 05:19:09 10° NNE
Cosmos 389 Rocket 2.3 05:14:57 10° NNW 05:18:26 76° W 05:21:56 10° S
Cosmos 2322 Rocket 2.7 05:12:49 10° NNW 05:18:27 63° ENE 05:24:03 10° SE
Cosmos 1707 3.1 05:17:52 10° SSW 05:21:33 40° WNW 05:25:15 10° N
COSMO-SKYMED 1 2.5 05:18:46 10° S 05:23:05 68° WSW 05:27:26 10° NNW
SL-4 R/B 3.6 05:21:01 10° NW 05:24:41 26° N 05:28:06 10° ENE
Okean 2 Rocket 4.2 05:21:17 10° NW 05:24:55 24° W 05:28:32 10° SW
Okean 2 4.1 05:24:18 10° SW 05:27:57 32° WNW 05:31:38 10° N
Cosmos 1908 3.4 05:24:44 10° N 05:28:35 75° E 05:32:21 10° SSE
FALCON 9 DEB 4.0 05:26:29 13° W 05:28:36 25° SW 05:31:08 10° SSE
USA 234 4.0 05:25:14 10° NE 05:31:05 36° NNW 05:36:56 10° W
CZ-4B R/B 4.2 05:31:38 10° ESE 05:33:49 18° ENE 05:36:02 10° NNE
Cosmos 2360 Rocket 3.2 05:28:38 10° NNW 05:34:11 51° ENE 05:39:41 10° SE
YAOGAN 6 3.0 05:32:21 10° N 05:35:38 39° WNW 05:38:55 10° SW
Cosmos 2219 Rocket 4.4 05:31:37 10° N 05:36:09 24° NE 05:40:42 10° ESE
SJ-12 4.3 05:33:02 10° N 05:36:51 39° WNW 05:40:37 10° SW
Cosmos 1378 Rocket 4.3 05:34:12 10° SW 05:38:05 30° WNW 05:42:00 10° NNW
Cosmos 2218 Rocket 4.4 05:32:48 10° NNW 05:38:47 43° W 05:44:43 10° SSW
CZ-2C R/B 2.7 05:34:02 10° S 05:39:24 65° W 05:44:56 10° NNW
Cosmos 1455 Rocket 3.6 05:36:39 10° N 05:41:06 65° E 05:45:31 10° SSE
Cosmos 1470 4.1 05:38:44 10° NW 05:41:28 18° W 05:44:10 10° SW
Lacrosse 5 rocket 1.9 05:37:59 10° WSW 05:42:04 46° NW 05:46:22 10° NE
Cosmos 1758 4.1 05:41:45 10° NNW 05:45:14 29° W 05:48:41 10° SSW
Cosmos 1821 Rocket 4.0 05:39:41 10° N 05:45:58 82° W 05:52:08 10° S
